Location: Esquièze
(42.8811°N, 0.0111°W)
Time: 08:14:50
(UTC+00:00)

Daily predictions for brighter satellites

Satellite Brightness Start Highest point End
(mag) Time Altitude Azimuth Time Altitude Azimuth Time Altitude Azimuth
Cosmos 2369 4.3 18:03:17 10° S 18:08:27 36° ESE 18:13:37 10° NE
ASTEX 1 3.7 18:05:06 10° NNE 18:09:55 46° E 18:14:42 10° SSE
NOSS 2-2 (C) 4.4 18:05:09 10° NNW 18:10:08 59° NE 18:17:08 10° SE
SKYMED 3 4.4 18:06:39 10° NNE 18:10:45 67° E 18:14:50 10° S
Cosmos 1626 2.1 18:09:02 10° N 18:12:37 54° E 18:16:09 10° SSE
CZ-4C R/B 4.3 18:06:42 10° NW 18:13:54 47° WSW 18:22:05 10° S
CZ-4B DEB 4.2 18:08:56 10° SSE 18:14:23 86° ENE 18:19:53 10° NNW
USA 229 DEB 4.2 18:07:15 10° NNW 18:14:29 54° NE 18:22:10 10° SE
USA 229 4.2 18:07:21 10° NNW 18:14:34 54° NE 18:22:15 10° SE
Cosmos 540 Rocket 3.9 18:12:20 10° N 18:17:12 42° ENE 18:22:00 10° SE
YAOGAN 1 3.1 18:14:02 10° SE 18:18:00 37° ENE 18:21:59 10° N
SKYMED 2 3.8 18:17:11 10° N 18:21:32 77° WNW 18:25:52 10° SSW
SL-4 R/B 3.7 18:18:47 10° NW 18:22:33 27° N 18:26:30 10° ENE
Cosmos 841 Rocket 4.2 18:19:36 10° N 18:24:15 32° ENE 18:28:50 10° SE
In-Cosmos 22 4.4 18:22:32 10° NNW 18:27:49 71° W 18:33:02 10° S
Cosmos 1954 Rocket 4.4 18:22:47 10° SSW 18:27:55 69° WNW 18:33:06 10° NNE
Cosmos 1763 Rocket 3.5 18:28:13 10° NNW 18:33:18 87° WSW 18:38:24 10° SSE
Cosmos 2279 Rocket 4.0 18:27:53 10° N 18:34:06 66° E 18:40:19 10° SSE
ISS -2.1 18:31:33 10° NW 18:34:20 24° NNE 18:36:41 12° ENE
Cosmos 2142 Rocket 4.5 18:30:46 10° N 18:37:06 69° E 18:43:17 10° SSE
Cosmos 2221 Rocket 3.9 18:32:48 10° N 18:37:10 46° ENE 18:41:31 10° SSE
Cosmos 1634 Rocket 4.2 18:32:26 10° N 18:38:36 76° W 18:44:45 10° S
Cosmos 2219 3.4 18:33:46 10° NNW 18:39:32 78° WSW 18:45:16 10° SSE
Aureole 1 4.1 18:36:46 10° SSW 18:39:45 86° WNW 18:42:58 10° NNE
SL-14 R/B 3.7 18:37:40 10° N 18:41:25 41° ENE 18:45:12 10° SSE
HJ-1C 3.2 18:38:49 10° SSE 18:41:53 56° ENE 18:44:57 10° N
NOSS 3-1 (A) 4.3 18:34:18 10° NW 18:41:58 84° SW 18:50:56 10° SSE
Cosmos 1805 3.1 18:42:22 10° S 18:46:13 70° E 18:50:05 10° NNE
Cosmos 1741 Rocket 4.0 18:43:50 10° S 18:49:01 60° ESE 18:54:13 10° NNE
USA 186 3.2 18:49:20 20° ENE 18:49:34 20° ENE 18:52:03 10° NNE
Cosmos 2263 Rocket 2.7 18:44:45 10° NNW 18:50:08 41° ENE 18:54:19 16° ESE
Cosmos 1378 Rocket 3.8 18:45:57 10° N 18:50:11 45° ENE 18:54:20 10° SSE
Cosmos 1733 Rocket 3.2 18:53:47 10° S 18:58:12 80° W 19:02:40 10° N
Cosmos 1766 3.5 18:55:00 10° SSE 18:58:41 44° E 19:02:27 10° NNE
Cosmos 2082 3.7 18:53:23 10° NNW 18:59:10 83° ENE 19:04:54 10° SSE
IRIDIUM 103 4.3 18:54:04 10° SSE 18:59:10 58° E 19:04:18 10° N
Meteor 2-14 Rocket 4.4 18:53:18 10° S 18:59:18 68° E 19:05:20 10° NNE
Cosmos 1242 Rocket 3.2 18:57:30 10° SSW 19:01:00 57° WNW 19:04:31 10° N
Okean-O 3.5 19:00:42 24° E 19:02:05 29° ENE 19:05:54 10° N
ARGOS Delta rocket 4.4 18:57:15 10° N 19:02:34 68° WNW 19:07:36 10° SSW
CZ-2C R/B 3.0 19:00:31 10° SW 19:02:38 16° SSW 19:04:00 13° SSE
Cosmos 1726 1.9 19:00:22 10° S 19:03:58 69° E 19:07:36 10° NNE
Cosmos 1697 Rocket 4.0 19:01:47 10° SW 19:07:05 43° WNW 19:12:27 10° NNE
CSL-04 Debris 4.4 19:06:17 17° SE 19:10:17 48° ENE 19:15:28 10° N
Cosmos 2084 4.3 19:09:58 10° WSW 19:13:37 43° NW 19:17:17 10° NNE
Meteor 2-21 Rocket 4.4 19:09:14 10° S 19:15:10 62° E 19:21:08 10° NNE
IRIDIUM 106 4.2 19:12:13 10° S 19:17:26 85° E 19:22:40 10° N
Cosmos 489 Rocket 4.4 19:14:29 10° S 19:20:46 66° ESE 19:27:03 10° NNE
CZ-4 R/B 2.2 19:23:19 10° S 19:27:22 52° W 19:31:29 10° NNW
CRYOSAT 2 4.5 19:29:50 40° SE 19:31:07 51° E 19:35:52 10° N
MINOTAUR IV R/B 4.5 19:27:07 10° SSW 19:31:38 88° ESE 19:36:10 10° NNE
Cosmos 2227 Rocket 4.5 19:28:08 10° NW 19:32:31 23° WSW 19:36:52 10° SSW
Meteor 2-16 Rocket 4.3 19:26:55 10° S 19:33:00 73° E 19:39:09 10° NNE
Meteor 1-12 Rocket 4.3 19:27:15 10° S 19:33:14 85° E 19:39:17 10° N
Gbstr 26 Del rocket 4.4 19:25:46 10° SW 19:33:24 90° SW 19:40:02 17° ENE
Cosmos 2285 Rocket 4.0 19:28:10 10° NNW 19:34:28 63° ENE 19:37:15 34° SE
Okean O Rocket 3.0 19:31:55 10° SSW 19:35:57 38° W 19:40:02 10° NNW
Timation 2 Rocket 3.9 19:29:52 10° NNW 19:36:22 87° WSW 19:40:08 25° SSE
SJ-6B 2.5 19:37:27 79° E 19:37:32 80° ENE 19:41:17 10° N
Cosmos 2026 Rocket 4.0 19:32:51 15° SSE 19:37:43 51° E 19:43:34 10° NNE
BREEZE M DEB (TANK) 2.6 19:31:42 10° SW 19:38:08 54° SSE 19:38:08 54° SSE
BREEZE-M DEB (TANK) 2.7 19:37:23 10° WNW 19:39:48 69° SSW 19:39:57 67° S
CSL-04 Rocket 3.5 19:38:43 31° SSE 19:41:21 80° ENE 19:46:44 10° NNW
Cosmos 1908 Rocket 3.5 19:37:10 10° S 19:41:30 79° W 19:45:51 10° N
Nadezhda 4 Rocket 4.3 19:37:59 10° SSW 19:44:18 71° W 19:50:37 10° N
Cosmos 1980 Rocket 3.5 19:41:35 10° SW 19:46:53 41° WNW 19:52:12 10° NNE
Cosmos 968 Rocket 3.3 19:43:30 10° S 19:48:44 72° ESE 19:53:58 10° NNE
OBJECT-B 3.2 19:56:15 16° NW 19:56:15 16° NW 19:57:05 10° NW
Landsat 5 4.2 19:51:51 10° N 19:56:16 56° WNW 20:00:38 10° SSW
Landsat 7 3.6 19:58:03 79° ENE 19:58:03 79° ENE 20:02:43 10° N
Cosmos 1437 Rocket 3.9 20:00:08 35° NNW 20:00:08 35° NNW 20:02:30 10° N
Cosmos 2278 4.3 19:54:31 10° SW 20:00:06 58° WNW 20:05:44 10° NNE
Meteor 1-24 Rocket 3.4 19:54:54 10° N 20:00:13 76° ENE 20:00:31 73° ESE
SL-4 R/B 2.9 19:58:24 10° NW 20:02:29 47° N 20:02:29 47° N
SL-16 R/B 2.0 19:58:16 10° SSW 20:03:54 75° ESE 20:09:35 10° NNE
H-2A R/B 4.1 20:08:59 25° N 20:08:59 25° N 20:10:44 10° N
Meteor 1-22 Rocket 4.1 20:01:53 10° SSW 20:07:13 81° W 20:12:47 10° N
Cosmos 1570 Rocket 3.9 20:03:24 10° NNW 20:08:41 88° NE 20:08:41 88° NE
MOS 1 4.5 20:10:30 54° NE 20:10:30 54° NE 20:15:24 10° N
ISS -1.5 20:08:02 10° WNW 20:09:34 25° WNW 20:09:34 25° WNW
Cosmos 1025 Rocket 4.4 20:12:37 10° N 20:14:56 31° N 20:14:56 31° N
Cosmos 1844 Rocket 3.5 20:11:46 10° NNW 20:16:00 39° NNE 20:16:00 39° NNE
Resurs 01 Rocket 3.2 20:19:37 28° N 20:19:37 28° N 20:21:48 10° N
Cosmos 1092 Rocket 4.3 20:14:00 10° SSW 20:20:16 66° W 20:26:33 10° N
Cosmos 1975 Rocket 4.3 20:18:05 10° N 20:20:46 36° NNW 20:20:46 36° NNW
Meteor 2-5 Rocket 4.2 20:22:21 10° NNW 20:27:44 55° W 20:28:43 48° SW
Cosmos 2208 Rocket 4.4 20:25:24 10° NNW 20:30:01 64° NW 20:30:01 64° NW
Cosmos 2263 Rocket 3.8 20:28:59 10° NW 20:33:52 30° WSW 20:36:03 23° SW
BREEZE-M DEB (TANK) 4.2 20:21:10 10° WNW 20:36:49 85° NNE 20:37:07 81° ENE
Okean-O 4.4 20:38:16 27° W 20:38:30 27° W 20:42:17 10° NW
USA 281 4.2 21:06:58 37° N 21:06:58 37° N 21:11:09 10° NNW
